EZY42L EGJJ-LIMJ

Flight info

Callsign EZY42L
Flight time 1h 34m
Altitude 37000
Route CAN UN160 PIGOP UN491 RESMI DCT PEKIM DCT MOKIP DCT MILPA DCT PAS DCT VANAS DCT TOP DCT TESTO
Aircraft A320/M-SDE3FGHIRWY/LB1

Departure

Time 2026-04-21 18:03
Airport Jersey Airport (EGJJ)

Arrival

Time 2026-04-21 19:38
Airport Genoa Cristoforo Colombo Airport (LIMJ)
Time Latitude Longitude Altitude Speed Heading
2026-04-21 17:24 49.20492 -2.19674 281 ft 0 kts 357°
2026-04-21 17:52 49.20479 -2.19672 280 ft 4 kts 353°
2026-04-21 17:52 49.20456 -2.19670 283 ft 4 kts 347°
2026-04-21 17:52 49.20437 -2.19651 280 ft 4 kts 286°
2026-04-21 17:52 49.20433 -2.19612 284 ft 0 kts 279°
2026-04-21 17:58 49.20433 -2.19613 284 ft 1 kts 279°
2026-04-21 17:58 49.20439 -2.19663 280 ft 9 kts 279°
2026-04-21 17:59 49.20439 -2.19765 280 ft 11 kts 265°
2026-04-21 17:59 49.20449 -2.19898 284 ft 14 kts 311°
2026-04-21 17:59 49.20513 -2.19972 280 ft 11 kts 291°
2026-04-21 17:59 49.20535 -2.20082 283 ft 11 kts 287°
2026-04-21 18:00 49.20569 -2.20246 280 ft 19 kts 287°
2026-04-21 18:00 49.20605 -2.20431 280 ft 18 kts 287°
2026-04-21 18:00 49.20619 -2.20505 280 ft 0 kts 285°
2026-04-21 18:01 49.20619 -2.20506 280 ft 1 kts 285°
2026-04-21 18:01 49.20625 -2.20559 280 ft 10 kts 276°
2026-04-21 18:01 49.20653 -2.20692 280 ft 14 kts 314°
2026-04-21 18:01 49.20696 -2.20690 280 ft 6 kts 66°
2026-04-21 18:02 49.20705 -2.20628 279 ft 0 kts 78°
2026-04-21 18:02 49.20739 -2.20263 279 ft 74 kts 83°
2026-04-21 18:03 49.20838 -2.19176 396 ft 122 kts 79°
2026-04-21 18:03 49.20938 -2.17897 1132 ft 122 kts 81°
2026-04-21 18:03 49.21065 -2.16610 1884 ft 123 kts 82°
2026-04-21 18:03 49.21205 -2.15278 2402 ft 135 kts 85°
2026-04-21 18:04 49.21335 -2.13731 2744 ft 159 kts 84°
2026-04-21 18:04 49.21483 -2.11929 3110 ft 183 kts 84°
2026-04-21 18:04 49.21656 -2.09866 3583 ft 208 kts 85°
2026-04-21 18:04 49.21853 -2.07551 4146 ft 230 kts 83°
2026-04-21 18:05 49.22064 -2.05062 4991 ft 239 kts 85°
2026-04-21 18:05 49.22094 -2.02484 5868 ft 246 kts 91°
2026-04-21 18:05 49.22042 -1.99832 6730 ft 254 kts 91°
2026-04-21 18:05 49.21967 -1.97100 7524 ft 261 kts 92°
2026-04-21 18:06 49.21884 -1.94284 8336 ft 268 kts 91°
2026-04-21 18:06 49.21798 -1.91394 9162 ft 275 kts 91°
2026-04-21 18:06 49.21711 -1.88429 9981 ft 282 kts 91°
2026-04-21 18:06 49.21625 -1.85401 10472 ft 300 kts 91°
2026-04-21 18:07 49.21538 -1.82085 10760 ft 324 kts 91°
2026-04-21 18:07 49.21449 -1.78556 11220 ft 339 kts 91°
2026-04-21 18:07 49.21356 -1.74907 11886 ft 347 kts 90°
2026-04-21 18:07 49.21265 -1.71175 12582 ft 354 kts 91°
2026-04-21 18:08 49.21169 -1.67377 13258 ft 361 kts 91°
2026-04-21 18:08 49.21066 -1.63503 13909 ft 369 kts 91°
2026-04-21 18:08 49.20961 -1.59550 14515 ft 375 kts 90°
2026-04-21 18:08 49.20853 -1.55550 15152 ft 379 kts 90°
2026-04-21 18:09 49.20742 -1.51492 15814 ft 383 kts 90°
2026-04-21 18:09 49.20625 -1.47382 16473 ft 388 kts 90°
2026-04-21 18:09 49.20546 -1.44655 16898 ft 390 kts 90°
2026-04-21 18:09 49.20382 -1.39061 17769 ft 396 kts 90°
2026-04-21 18:10 49.20260 -1.34839 18408 ft 400 kts 90°
2026-04-21 18:10 49.20139 -1.30565 18947 ft 404 kts 90°
2026-04-21 18:10 49.20016 -1.26256 19483 ft 408 kts 90°
2026-04-21 18:10 49.19888 -1.21897 20006 ft 412 kts 90°
2026-04-21 18:11 49.19754 -1.17493 20529 ft 416 kts 90°
2026-04-21 18:11 49.19617 -1.13055 21049 ft 420 kts 90°
2026-04-21 18:11 49.19479 -1.08565 21554 ft 424 kts 90°
2026-04-21 18:11 49.19337 -1.04035 22071 ft 428 kts 90°
2026-04-21 18:12 49.19190 -0.99463 22572 ft 432 kts 90°
2026-04-21 18:12 49.19039 -0.94866 23057 ft 436 kts 90°
2026-04-21 18:12 49.18886 -0.90218 23544 ft 439 kts 90°
2026-04-21 18:12 49.18730 -0.85528 23968 ft 443 kts 90°
2026-04-21 18:13 49.18572 -0.80813 24371 ft 446 kts 90°
2026-04-21 18:13 49.18413 -0.76055 24775 ft 449 kts 90°
2026-04-21 18:13 49.18251 -0.71275 25166 ft 452 kts 90°
2026-04-21 18:13 49.18084 -0.66454 25552 ft 455 kts 90°
2026-04-21 18:14 49.17735 -0.56732 26323 ft 461 kts 90°
2026-04-21 18:14 49.17553 -0.51831 26689 ft 464 kts 91°
2026-04-21 18:14 49.17177 -0.46904 27067 ft 469 kts 99°
2026-04-21 18:15 49.16337 -0.42070 27418 ft 474 kts 108°
2026-04-21 18:15 49.15105 -0.37382 27774 ft 477 kts 112°
2026-04-21 18:15 49.13817 -0.32685 28153 ft 480 kts 112°
2026-04-21 18:15 49.12524 -0.27959 28525 ft 483 kts 112°
2026-04-21 18:16 49.11230 -0.23218 28880 ft 486 kts 111°
2026-04-21 18:16 49.09941 -0.18441 29223 ft 489 kts 111°
2026-04-21 18:16 49.08653 -0.13620 29547 ft 491 kts 111°
2026-04-21 18:16 49.07377 -0.08813 29880 ft 494 kts 111°
2026-04-21 18:17 49.06072 -0.03906 30189 ft 497 kts 111°
2026-04-21 18:17 49.04765 0.00991 30458 ft 499 kts 111°
2026-04-21 18:17 49.03448 0.05909 30729 ft 502 kts 111°
2026-04-21 18:17 49.02119 0.10842 30998 ft 504 kts 111°
2026-04-21 18:18 49.00782 0.15778 31264 ft 505 kts 112°
2026-04-21 18:18 48.99437 0.20727 31652 ft 505 kts 112°
2026-04-21 18:18 48.98094 0.25655 32013 ft 504 kts 112°
2026-04-21 18:18 48.96745 0.30588 32376 ft 504 kts 112°
2026-04-21 18:19 48.95418 0.35444 32750 ft 504 kts 112°
2026-04-21 18:19 48.94072 0.40368 33094 ft 503 kts 112°
2026-04-21 18:19 48.92730 0.45274 33462 ft 503 kts 112°
2026-04-21 18:19 48.91383 0.50176 33816 ft 503 kts 112°
2026-04-21 18:20 48.90027 0.55092 34179 ft 502 kts 112°
2026-04-21 18:20 48.88675 0.59979 34496 ft 502 kts 112°
2026-04-21 18:20 48.87323 0.64851 34853 ft 500 kts 112°
2026-04-21 18:20 48.85969 0.69717 35202 ft 499 kts 112°
2026-04-21 18:21 48.84628 0.74570 35546 ft 497 kts 112°
2026-04-21 18:21 48.83320 0.79412 35884 ft 495 kts 111°
2026-04-21 18:21 48.82030 0.84252 36215 ft 493 kts 111°
2026-04-21 18:21 48.80752 0.89067 36550 ft 492 kts 111°
2026-04-21 18:22 48.79475 0.93862 36860 ft 490 kts 111°
2026-04-21 18:22 48.78192 0.98649 37110 ft 489 kts 111°
2026-04-21 18:22 48.76907 1.03419 37160 ft 488 kts 111°
2026-04-21 18:23 48.74765 1.11312 37156 ft 487 kts 112°
2026-04-21 18:23 48.72177 1.20794 37153 ft 487 kts 112°
2026-04-21 18:24 48.69582 1.30269 37152 ft 488 kts 111°
2026-04-21 18:24 48.67749 1.40109 37150 ft 486 kts 99°
2026-04-21 18:25 48.66413 1.50136 37151 ft 486 kts 99°
2026-04-21 18:25 48.65062 1.60175 37148 ft 486 kts 99°
2026-04-21 18:26 48.63694 1.70192 37141 ft 487 kts 100°
2026-04-21 18:26 48.62316 1.80209 37135 ft 487 kts 99°
2026-04-21 18:27 48.60933 1.90226 37135 ft 487 kts 99°
2026-04-21 18:27 48.59540 2.00269 37134 ft 488 kts 99°
2026-04-21 18:28 48.58133 2.10286 37140 ft 488 kts 100°
2026-04-21 18:28 48.56093 2.20063 37138 ft 491 kts 115°
2026-04-21 18:29 48.52470 2.28788 37152 ft 491 kts 125°
2026-04-21 18:29 48.48578 2.37268 37128 ft 492 kts 125°
2026-04-21 18:30 48.44677 2.45748 37143 ft 492 kts 125°
2026-04-21 18:30 48.40763 2.54214 37143 ft 493 kts 125°
2026-04-21 18:31 48.36833 2.62690 37145 ft 494 kts 125°
2026-04-21 18:31 48.32925 2.71106 37140 ft 494 kts 125°
2026-04-21 18:32 48.28977 2.79552 37141 ft 494 kts 127°
2026-04-21 18:32 48.24230 2.86944 37139 ft 492 kts 141°
2026-04-21 18:33 48.19047 2.93644 37128 ft 492 kts 141°
2026-04-21 18:33 48.13856 3.00334 37123 ft 492 kts 141°
2026-04-21 18:34 48.08669 3.07027 37122 ft 492 kts 141°
2026-04-21 18:34 48.03484 3.13722 37117 ft 493 kts 141°
2026-04-21 18:35 47.99127 3.19321 37121 ft 493 kts 141°
2026-04-21 18:35 47.93085 3.27053 37112 ft 493 kts 141°
2026-04-21 18:36 47.87870 3.33705 37113 ft 493 kts 141°
2026-04-21 18:36 47.82652 3.40335 37117 ft 493 kts 141°
2026-04-21 18:37 47.77432 3.46956 37110 ft 493 kts 141°
2026-04-21 18:37 47.72208 3.53572 37106 ft 493 kts 141°
2026-04-21 18:38 47.66975 3.60164 37100 ft 493 kts 142°
2026-04-21 18:38 47.61743 3.66743 37092 ft 493 kts 142°
2026-04-21 18:39 47.56542 3.73276 37094 ft 493 kts 142°
2026-04-21 18:39 47.51269 3.79883 37088 ft 493 kts 142°
2026-04-21 18:40 47.46029 3.86434 37084 ft 493 kts 142°
2026-04-21 18:40 47.41667 3.91880 37079 ft 493 kts 142°
2026-04-21 18:41 47.35560 3.99459 37084 ft 494 kts 142°
2026-04-21 18:41 47.30291 4.05977 37072 ft 494 kts 142°
2026-04-21 18:42 47.25022 4.12481 37076 ft 495 kts 142°
2026-04-21 18:42 47.19745 4.18979 37071 ft 495 kts 142°
2026-04-21 18:43 47.14437 4.25514 37073 ft 495 kts 142°
2026-04-21 18:43 47.09148 4.32002 37081 ft 495 kts 142°
2026-04-21 18:44 47.03880 4.38427 37083 ft 495 kts 142°
2026-04-21 18:44 46.98578 4.44884 37066 ft 496 kts 142°
2026-04-21 18:45 46.93271 4.51332 37062 ft 496 kts 142°
2026-04-21 18:45 46.87964 4.57779 37060 ft 496 kts 143°
2026-04-21 18:46 46.82650 4.64206 37055 ft 496 kts 143°
2026-04-21 18:46 46.77324 4.70614 37052 ft 496 kts 143°
2026-04-21 18:47 46.72000 4.77016 37050 ft 496 kts 143°
2026-04-21 18:47 46.66673 4.83413 37044 ft 496 kts 143°
2026-04-21 18:48 46.61333 4.89793 37042 ft 496 kts 143°
2026-04-21 18:48 46.56006 4.96157 37037 ft 496 kts 143°
2026-04-21 18:49 46.50664 5.02510 37027 ft 496 kts 142°
2026-04-21 18:49 46.46674 5.08590 37025 ft 499 kts 126°
2026-04-21 18:49 46.44336 5.14296 37019 ft 499 kts 114°
2026-04-21 18:50 46.43122 5.18997 37020 ft 497 kts 103°
2026-04-21 18:50 46.41376 5.28685 37016 ft 497 kts 103°
2026-04-21 18:51 46.39587 5.38375 37016 ft 497 kts 103°
2026-04-21 18:51 46.37772 5.48039 37017 ft 497 kts 103°
2026-04-21 18:52 46.35958 5.57716 37017 ft 497 kts 103°
2026-04-21 18:52 46.34155 5.67372 37014 ft 498 kts 103°
2026-04-21 18:53 46.32307 5.77025 37019 ft 498 kts 107°
2026-04-21 18:53 46.29154 5.85944 37013 ft 499 kts 127°
2026-04-21 18:54 46.24296 5.92983 36998 ft 493 kts 147°
2026-04-21 18:54 46.18483 5.98165 36992 ft 491 kts 153°
2026-04-21 18:55 46.13772 6.02764 37012 ft 495 kts 146°
2026-04-21 18:55 46.07318 6.09705 36984 ft 495 kts 146°
2026-04-21 18:56 46.01815 6.15593 36989 ft 496 kts 147°
2026-04-21 18:56 45.96228 6.21535 36979 ft 496 kts 147°
2026-04-21 18:57 45.90669 6.27443 36988 ft 497 kts 147°
2026-04-21 18:57 45.85112 6.33334 36988 ft 497 kts 147°
2026-04-21 18:58 45.79580 6.39191 36987 ft 497 kts 147°
2026-04-21 18:58 45.74030 6.45050 36981 ft 496 kts 147°
2026-04-21 18:59 45.68426 6.50941 36980 ft 496 kts 147°
2026-04-21 18:59 45.62858 6.56782 36970 ft 496 kts 147°
2026-04-21 19:00 45.57318 6.62582 36968 ft 497 kts 147°
2026-04-21 19:00 45.51745 6.68397 36972 ft 497 kts 147°
2026-04-21 19:01 45.46340 6.74540 36970 ft 500 kts 137°
2026-04-21 19:01 45.42091 6.82399 36958 ft 503 kts 124°
2026-04-21 19:02 45.38218 6.90684 36960 ft 503 kts 124°
2026-04-21 19:02 45.34331 6.98958 36972 ft 503 kts 124°
2026-04-21 19:03 45.30453 7.07177 36991 ft 492 kts 125°
2026-04-21 19:03 45.29175 7.09875 37000 ft 481 kts 125°
2026-04-21 19:03 45.27332 7.13755 37001 ft 467 kts 125°
2026-04-21 19:03 45.24964 7.18734 37017 ft 455 kts 125°
2026-04-21 19:04 45.23768 7.21245 37021 ft 453 kts 125°
2026-04-21 19:04 45.20249 7.28623 37030 ft 452 kts 124°
2026-04-21 19:04 45.18476 7.32338 36713 ft 456 kts 125°
2026-04-21 19:05 45.16708 7.36038 36438 ft 452 kts 125°
2026-04-21 19:05 45.14950 7.39713 36181 ft 450 kts 125°
2026-04-21 19:05 45.13191 7.43385 35804 ft 449 kts 125°
2026-04-21 19:05 45.11446 7.47028 35398 ft 446 kts 124°
2026-04-21 19:06 45.09701 7.50661 34977 ft 445 kts 124°
2026-04-21 19:06 45.07963 7.54282 34610 ft 444 kts 124°
2026-04-21 19:06 45.06231 7.57883 34255 ft 443 kts 124°
2026-04-21 19:06 45.04499 7.61472 33890 ft 442 kts 124°
2026-04-21 19:07 45.02773 7.65047 33471 ft 439 kts 124°
2026-04-21 19:07 45.01052 7.68606 33062 ft 438 kts 124°
2026-04-21 19:07 44.99325 7.72178 32648 ft 441 kts 124°
2026-04-21 19:07 44.97600 7.75746 32259 ft 439 kts 124°
2026-04-21 19:08 44.95883 7.79294 31865 ft 439 kts 124°
2026-04-21 19:08 44.94146 7.82874 31517 ft 441 kts 124°
2026-04-21 19:08 44.92436 7.86404 31337 ft 431 kts 123°
2026-04-21 19:08 44.90853 7.89939 31217 ft 422 kts 120°
2026-04-21 19:09 44.89362 7.93480 31086 ft 418 kts 124°
2026-04-21 19:09 44.87613 7.96732 30886 ft 416 kts 130°
2026-04-21 19:09 44.85782 7.99877 30631 ft 413 kts 130°
2026-04-21 19:09 44.83957 8.02985 30292 ft 410 kts 130°
2026-04-21 19:10 44.82139 8.06072 29997 ft 407 kts 130°
2026-04-21 19:10 44.80426 8.09222 29657 ft 404 kts 119°
2026-04-21 19:10 44.79226 8.12775 29314 ft 400 kts 111°
2026-04-21 19:10 44.78154 8.16331 28992 ft 398 kts 110°
2026-04-21 19:11 44.77083 8.19915 28646 ft 396 kts 110°
2026-04-21 19:11 44.76018 8.23486 28319 ft 394 kts 110°
2026-04-21 19:11 44.74966 8.27028 27990 ft 391 kts 110°
2026-04-21 19:11 44.73926 8.30541 27669 ft 387 kts 110°
2026-04-21 19:12 44.72898 8.34021 27350 ft 384 kts 110°
2026-04-21 19:12 44.71876 8.37489 26990 ft 383 kts 111°
2026-04-21 19:12 44.70863 8.40938 26605 ft 381 kts 110°
2026-04-21 19:12 44.69852 8.44378 26263 ft 379 kts 110°
2026-04-21 19:13 44.68849 8.47788 25938 ft 377 kts 111°
2026-04-21 19:13 44.67572 8.50990 25613 ft 375 kts 126°
2026-04-21 19:13 44.66082 8.53975 25297 ft 372 kts 126°
2026-04-21 19:13 44.64592 8.56945 24933 ft 371 kts 126°
2026-04-21 19:14 44.63103 8.59895 24571 ft 370 kts 126°
2026-04-21 19:14 44.61614 8.62832 24215 ft 369 kts 126°
2026-04-21 19:14 44.60125 8.65769 23863 ft 368 kts 125°
2026-04-21 19:14 44.58783 8.68827 23505 ft 368 kts 120°
2026-04-21 19:15 44.57507 8.71926 23182 ft 365 kts 120°
2026-04-21 19:15 44.56242 8.74996 22898 ft 361 kts 120°
2026-04-21 19:15 44.54990 8.78034 22593 ft 358 kts 120°
2026-04-21 19:15 44.53744 8.81050 22265 ft 356 kts 120°
2026-04-21 19:16 44.52506 8.84038 21943 ft 354 kts 120°
2026-04-21 19:16 44.51273 8.87013 21630 ft 351 kts 120°
2026-04-21 19:16 44.50049 8.89961 21322 ft 349 kts 120°
2026-04-21 19:16 44.48826 8.92898 21013 ft 348 kts 120°
2026-04-21 19:17 44.46396 8.98722 20402 ft 344 kts 120°
2026-04-21 19:17 44.45182 9.01616 20046 ft 342 kts 123°
2026-04-21 19:17 44.43696 9.04171 19670 ft 337 kts 142°
2026-04-21 19:18 44.41831 9.06049 19307 ft 325 kts 158°
2026-04-21 19:18 44.39767 9.07165 18946 ft 314 kts 175°
2026-04-21 19:18 44.37646 9.07525 18588 ft 302 kts 190°
2026-04-21 19:18 44.35584 9.07300 18231 ft 296 kts 193°
2026-04-21 19:19 44.33514 9.07218 17829 ft 298 kts 189°
2026-04-21 19:19 44.31436 9.07204 17427 ft 298 kts 188°
2026-04-21 19:19 44.29368 9.07185 17031 ft 297 kts 188°
2026-04-21 19:19 44.27303 9.07151 16639 ft 296 kts 188°
2026-04-21 19:20 44.25248 9.07102 16252 ft 295 kts 188°
2026-04-21 19:20 44.23201 9.07041 15923 ft 293 kts 188°
2026-04-21 19:20 44.21182 9.06972 15670 ft 287 kts 188°
2026-04-21 19:20 44.19202 9.06899 15421 ft 283 kts 188°
2026-04-21 19:21 44.17246 9.06822 15172 ft 278 kts 188°
2026-04-21 19:21 44.15330 9.06743 14923 ft 275 kts 188°
2026-04-21 19:21 44.13427 9.06656 14605 ft 272 kts 188°
2026-04-21 19:21 44.11540 9.06560 14277 ft 270 kts 188°
2026-04-21 19:22 44.09670 9.06455 13895 ft 268 kts 188°
2026-04-21 19:22 44.07816 9.06340 13514 ft 266 kts 188°
2026-04-21 19:22 44.05976 9.06216 13144 ft 263 kts 188°
2026-04-21 19:22 44.04152 9.06083 12773 ft 261 kts 188°
2026-04-21 19:23 44.02339 9.05943 12414 ft 262 kts 188°
2026-04-21 19:23 44.00502 9.05827 12060 ft 267 kts 181°
2026-04-21 19:23 43.98719 9.06464 11977 ft 267 kts 155°
2026-04-21 19:23 43.97264 9.08078 11744 ft 272 kts 127°
2026-04-21 19:24 43.96481 9.10430 11375 ft 269 kts 98°
2026-04-21 19:24 43.96519 9.12968 11007 ft 262 kts 71°
2026-04-21 19:24 43.97290 9.15166 10755 ft 252 kts 46°
2026-04-21 19:24 43.98580 9.16784 10509 ft 245 kts 32°
2026-04-21 19:25 43.99926 9.18183 10270 ft 245 kts 32°
2026-04-21 19:25 44.01301 9.19620 10028 ft 244 kts 33°
2026-04-21 19:25 44.02637 9.21016 9847 ft 242 kts 33°
2026-04-21 19:25 44.03986 9.22427 9718 ft 243 kts 33°
2026-04-21 19:26 44.05352 9.23854 9576 ft 242 kts 33°
2026-04-21 19:26 44.06681 9.25244 9460 ft 242 kts 33°
2026-04-21 19:26 44.08021 9.26648 9323 ft 241 kts 34°
2026-04-21 19:26 44.09256 9.28234 9191 ft 243 kts 46°
2026-04-21 19:27 44.10296 9.30089 9070 ft 243 kts 50°
2026-04-21 19:27 44.11319 9.31964 8868 ft 242 kts 50°
2026-04-21 19:27 44.12338 9.33825 8655 ft 241 kts 50°
2026-04-21 19:27 44.13366 9.35648 8427 ft 238 kts 44°
2026-04-21 19:28 44.14723 9.36836 8200 ft 229 kts 12°
2026-04-21 19:28 44.16267 9.36873 7985 ft 220 kts 342°
2026-04-21 19:28 44.17585 9.35897 7766 ft 214 kts 321°
2026-04-21 19:28 44.18761 9.34644 7561 ft 212 kts 321°
2026-04-21 19:29 44.19927 9.33410 7360 ft 209 kts 322°
2026-04-21 19:29 44.21072 9.32204 7214 ft 202 kts 322°
2026-04-21 19:29 44.22170 9.31050 7026 ft 195 kts 322°
2026-04-21 19:29 44.23249 9.29911 6851 ft 194 kts 322°
2026-04-21 19:30 44.24321 9.28777 6677 ft 194 kts 322°
2026-04-21 19:30 44.25395 9.27641 6494 ft 193 kts 322°
2026-04-21 19:30 44.26466 9.26505 6329 ft 193 kts 322°
2026-04-21 19:30 44.27537 9.25368 6142 ft 193 kts 322°
2026-04-21 19:31 44.28609 9.24233 5965 ft 193 kts 322°
2026-04-21 19:31 44.29680 9.23098 5713 ft 193 kts 322°
2026-04-21 19:31 44.30750 9.21964 5483 ft 193 kts 322°
2026-04-21 19:31 44.31826 9.20825 5248 ft 193 kts 322°
2026-04-21 19:32 44.32888 9.19677 5013 ft 193 kts 317°
2026-04-21 19:32 44.33706 9.18208 4834 ft 191 kts 297°
2026-04-21 19:32 44.34224 9.16483 4690 ft 194 kts 289°
2026-04-21 19:32 44.34648 9.14698 4449 ft 193 kts 287°
2026-04-21 19:33 44.34912 9.13511 4271 ft 193 kts 287°
2026-04-21 19:33 44.35434 9.11123 3912 ft 192 kts 287°
2026-04-21 19:33 44.35822 9.09341 3640 ft 191 kts 287°
2026-04-21 19:33 44.36206 9.07569 3379 ft 190 kts 287°
2026-04-21 19:34 44.36589 9.05803 3110 ft 190 kts 287°
2026-04-21 19:34 44.36972 9.04039 2842 ft 189 kts 287°
2026-04-21 19:34 44.37352 9.02284 2576 ft 188 kts 287°
2026-04-21 19:34 44.37731 9.00531 2317 ft 188 kts 287°
2026-04-21 19:35 44.38108 8.98789 2048 ft 186 kts 287°
2026-04-21 19:35 44.38798 8.95651 1575 ft 152 kts 288°
2026-04-21 19:35 44.39096 8.94280 1322 ft 144 kts 286°
2026-04-21 19:36 44.39396 8.92971 1085 ft 140 kts 290°
2026-04-21 19:36 44.39709 8.91707 937 ft 137 kts 286°
2026-04-21 19:36 44.39974 8.90418 759 ft 138 kts 285°
2026-04-21 19:36 44.40229 8.89114 572 ft 139 kts 284°
2026-04-21 19:37 44.40484 8.87806 372 ft 140 kts 284°
2026-04-21 19:37 44.40743 8.86496 194 ft 140 kts 284°
2026-04-21 19:37 44.40996 8.85199 21 ft 131 kts 284°
2026-04-21 19:37 44.41196 8.84174 22 ft 84 kts 285°
2026-04-21 19:38 44.41327 8.83772 19 ft 25 kts 323°
2026-04-21 19:38 44.41405 8.83768 21 ft 1 kts 48°
2026-04-21 19:39 44.41406 8.83769 21 ft 1 kts 48°
2026-04-21 19:39 44.41418 8.83805 22 ft 13 kts 76°
2026-04-21 19:39 44.41398 8.83956 21 ft 17 kts 103°
2026-04-21 19:39 44.41363 8.84125 19 ft 19 kts 106°
2026-04-21 19:40 44.41328 8.84303 20 ft 18 kts 105°
2026-04-21 19:40 44.41316 8.84384 20 ft 8 kts 95°
2026-04-21 19:40 44.41361 8.84488 20 ft 14 kts 51°
2026-04-21 19:40 44.41418 8.84600 20 ft 13 kts 71°
2026-04-21 19:41 44.41379 8.84627 20 ft 6 kts 198°
2026-04-21 19:41 44.41351 8.84616 22 ft 0 kts 195°